Retour au catalogue

HBTSS-SV1

ActifMilitaireVLEO
NORAD 58960·PAYLOAD·🇺🇸 United States

Lancé Feb 14, 2024 depuis Cape Canaveral Space Force Station

Loading…

Prochains Passages (prochaines 24 heures)

TLE

FraisSource: Space-Track

Époque: Sep 14, 2026, 16:54 UTC

1 58960U 24028F   26257.70420518  .00004828  00000-0  35611-3 0  9994
2 58960  39.9905 333.2695 0008888 113.2763 246.8967 15.03729217120621

Suivez HBTSS-SV1 en temps réel avec AllMySat

Download on the App Store